Theta_e
347 350 351 352 353 354 355 354 352 353 354 353 355 357 358 359 359 359 359 360 360 359 359 359 359 358 356 354 352 348 344 338 336 334 333 333 335 335 335 339 341 340 340 339 338 337 336 337 337 335 334 333 334 334 334 335 337 336 336 337 336 335 334
347 350 351 351 352 353 354 352 351 352 353 354 354 356 358 359 359 359 359 359 360 359 359 359 358 357 355 354 350 344 340 338 336 334 333 335 337 337 337 339 340 339 340 338 335 336 336 336 337 335 334 335 335 336 336 336 336 336 336 336 336 336 335
347 349 350 351 352 352 353 351 350 351 352 353 354 355 358 358 359 360 359 359 359 358 358 357 357 356 353 351 346 340 338 338 336 334 336 339 339 337 336 337 338 339 338 336 334 335 336 337 337 336 335 336 335 335 335 335 335 335 336 336 336 336 336
346 349 349 350 351 351 352 350 348 350 351 352 354 355 357 358 359 359 358 358 358 357 356 356 355 354 352 349 343 338 338 337 335 336 338 340 338 336 336 337 338 338 337 336 335 335 335 337 337 336 335 335 334 334 335 335 335 335 335 335 336 336 336
345 348 350 350 351 351 351 350 347 349 350 351 353 355 357 358 358 359 358 358 357 357 357 355 353 352 349 346 341 339 337 335 337 340 340 340 337 335 336 337 337 336 336 336 334 333 335 336 336 335 335 335 333 333 333 333 333 334 335 336 336 336 336
344 347 350 350 350 350 350 349 347 349 349 351 352 354 356 358 358 359 357 357 356 355 354 353 352 350 347 343 340 339 337 336 340 343 341 340 337 335 335 336 336 336 337 336 333 333 336 336 335 335 334 334 333 332 332 332 331 332 333 335 336 336 336
344 346 348 349 350 349 349 347 347 348 349 350 352 354 356 357 358 358 356 355 354 353 352 351 350 348 345 342 340 339 336 337 342 342 341 340 337 335 335 336 337 337 337 335 332 334 336 336 335 334 334 333 333 332 332 333 332 331 331 332 333 334 336
343 345 346 348 349 348 348 347 346 348 349 350 352 354 356 357 357 357 356 354 353 352 351 350 349 346 344 341 339 339 337 338 341 342 342 341 338 336 335 336 337 337 336 335 332 333 334 334 335 334 334 334 334 334 333 333 333 332 331 331 331 332 334
344 345 344 346 347 347 348 346 345 347 349 350 352 354 355 356 356 356 355 353 352 351 349 349 348 345 343 342 340 341 339 339 342 344 343 341 339 337 336 336 336 336 336 334 331 331 332 333 334 333 334 334 334 334 334 334 334 333 333 332 331 330 332
345 344 345 346 346 349 348 345 347 348 349 350 352 354 355 355 355 355 354 352 351 350 349 348 346 344 343 342 341 342 341 341 344 345 343 342 339 337 337 337 336 336 335 332 329 331 332 332 333 333 334 334 334 335 334 335 335 334 334 333 332 331 331
346 345 346 348 349 351 351 350 351 350 349 350 351 353 354 355 355 354 353 352 350 349 348 347 345 344 343 342 343 343 342 343 345 345 344 343 340 338 338 338 337 335 333 331 330 331 332 333 334 334 334 335 334 334 334 333 333 334 334 334 333 331 330
346 346 348 351 353 354 353 353 354 352 350 351 352 353 354 354 354 353 352 352 350 349 348 346 345 345 343 343 343 343 343 344 345 344 344 343 340 339 339 338 335 332 331 331 331 332 334 334 334 333 333 333 332 331 331 331 331 332 333 334 333 332 331
347 349 350 352 352 353 354 353 354 354 351 350 352 353 354 354 353 352 351 351 350 349 347 346 345 344 344 344 344 343 344 344 345 345 344 343 342 340 340 339 333 327 329 332 332 334 335 334 332 331 330 330 330 330 329 329 330 329 330 332 332 331 331
353 353 352 353 352 354 356 353 354 354 351 350 352 353 354 354 353 352 351 350 349 349 347 346 345 344 344 343 344 344 344 344 345 346 344 343 342 340 340 341 331 323 328 333 334 335 335 332 330 330 330 330 330 330 329 329 329 329 329 330 330 330 331
356 354 353 355 354 355 356 353 354 356 352 351 352 353 354 353 352 352 351 350 350 349 348 346 345 345 344 343 344 344 343 344 345 345 344 343 342 340 341 338 327 323 330 335 335 336 335 331 331 331 331 331 331 330 330 329 329 329 329 329 330 330 330
356 354 354 355 355 355 355 354 354 355 354 352 351 353 354 353 352 352 350 350 350 349 349 347 345 345 345 344 345 344 343 344 344 343 343 342 341 342 339 330 325 329 336 336 335 337 335 331 332 332 331 332 331 330 330 330 329 330 329 329 330 329 330
354 353 354 355 355 354 354 355 355 355 356 353 351 353 354 353 353 351 351 351 350 349 349 348 346 346 345 344 345 343 342 342 344 343 343 342 343 341 332 325 328 336 338 336 336 336 334 332 332 332 331 331 332 332 332 331 330 330 330 329 329 329 330
355 356 357 356 355 354 354 354 355 356 356 353 352 353 354 354 353 351 351 351 349 350 349 348 348 346 345 345 344 341 340 341 343 343 343 343 339 332 327 329 336 339 338 336 336 335 334 333 332 333 331 331 332 333 333 331 330 330 330 330 329 329 329
356 357 357 356 355 354 353 353 352 352 351 350 352 354 353 354 353 351 351 350 350 350 349 348 348 347 345 345 342 340 340 341 343 343 342 339 331 327 331 337 339 339 337 336 335 336 335 333 333 333 331 331 333 334 333 332 330 330 330 330 329 329 329
360 361 361 360 360 357 354 352 348 346 346 349 351 353 354 354 353 352 351 351 350 350 349 348 347 345 345 344 341 340 341 342 343 342 339 335 332 334 337 339 338 338 338 336 335 336 335 333 333 333 332 332 333 334 334 332 331 331 330 330 330 329 329
366 368 368 369 370 366 362 359 351 344 345 348 349 351 353 353 352 352 350 350 349 349 348 347 345 344 344 343 341 340 341 343 341 337 334 335 338 339 338 337 339 339 338 336 336 336 335 333 334 333 332 333 334 334 334 332 332 332 331 330 330 329 329
367 369 372 374 373 370 365 359 354 348 346 347 348 349 351 352 352 351 349 349 348 347 347 346 343 342 343 343 342 341 342 343 339 335 335 338 340 339 338 338 339 338 338 337 336 336 335 334 335 334 333 333 334 335 335 334 333 332 331 330 330 329 329
365 372 378 369 357 356 355 353 353 352 349 349 348 348 349 350 350 349 347 346 345 345 344 342 339 338 339 341 341 341 342 342 338 336 336 338 339 338 337 338 339 339 338 337 336 336 336 335 334 334 333 333 334 335 335 335 333 332 331 331 331 330 330
355 360 362 353 345 347 349 349 353 354 351 349 348 347 348 348 347 346 343 342 341 340 340 338 337 337 338 340 341 342 342 341 339 335 333 334 336 337 337 338 339 339 338 337 336 336 335 334 334 333 333 334 335 335 336 335 334 332 331 331 331 330 330
354 350 342 337 342 346 347 349 352 352 352 350 347 347 347 346 345 343 340 339 339 338 338 337 338 339 339 339 340 341 342 342 339 335 331 332 335 336 338 339 339 339 337 336 336 335 334 334 334 334 334 335 335 336 336 336 335 332 331 331 331 331 330
355 354 343 337 340 342 343 349 352 351 352 350 347 346 345 344 343 341 339 340 339 338 337 336 338 339 338 338 338 338 340 342 340 335 333 334 336 336 338 339 338 337 336 335 335 335 334 333 334 335 336 335 335 336 335 336 336 333 331 331 331 331 330
353 354 352 348 349 348 346 350 352 351 350 348 346 345 343 342 341 339 338 339 337 336 336 336 337 338 338 338 337 336 338 339 337 334 333 334 335 336 336 337 336 336 336 336 336 335 335 334 334 335 336 336 336 336 335 336 335 334 331 330 330 330 329
367 364 359 356 356 353 350 350 349 347 346 345 343 343 342 341 339 337 337 336 336 336 336 336 337 338 337 337 337 336 337 336 334 333 335 336 337 337 337 337 337 337 337 337 336 336 336 335 335 336 336 336 336 335 335 335 334 332 330 329 329 329 329
375 368 359 354 353 353 350 347 345 343 341 341 341 341 340 339 338 336 335 335 335 336 335 335 336 336 335 335 336 335 334 335 335 337 338 339 339 339 338 338 338 338 338 337 337 337 336 335 335 334 335 335 335 334 334 333 331 329 328 327 327 328 329
365 358 351 348 349 351 349 345 343 341 340 340 340 339 339 339 338 335 334 334 334 334 334 334 334 334 334 335 335 333 333 335 339 340 340 341 341 340 340 340 339 339 338 337 337 336 336 335 334 333 333 334 334 333 332 331 329 328 328 327 327 327 328
355 350 348 345 345 348 349 345 343 341 339 338 338 338 338 338 338 335 333 333 332 332 333 334 333 333 333 333 333 333 334 337 340 339 340 341 342 342 341 341 339 338 337 337 337 336 335 334 333 332 333 332 332 331 331 330 329 328 328 328 327 327 327
349 342 342 343 344 345 345 344 341 341 339 338 337 337 336 337 337 336 334 333 332 332 333 333 333 333 333 333 334 335 336 338 339 340 342 342 342 342 342 341 339 338 337 336 336 335 334 333 332 332 331 331 331 330 330 329 329 329 328 328 327 327 328
351 342 340 342 343 342 342 342 341 340 340 338 337 336 336 336 336 336 335 334 334 334 334 334 336 335 335 335 336 336 338 341 341 342 343 343 342 342 340 339 339 338 337 336 335 334 333 332 331 331 330 330 330 330 329 329 329 328 329 328 328 328 328
347 341 340 341 341 341 341 341 341 341 341 340 338 337 337 337 337 336 337 336 336 337 338 339 338 338 337 336 336 337 339 342 342 343 343 342 341 340 339 338 337 336 336 335 334 333 333 332 331 331 330 330 330 329 329 329 329 329 329 329 329 330 328
341 339 340 340 340 341 341 340 340 341 341 340 339 338 337 338 338 338 337 336 336 336 336 335 335 337 338 339 339 341 342 343 343 344 342 340 339 338 337 336 335 334 334 333 333 333 332 332 332 331 330 330 330 329 328 329 329 329 329 329 330 330 328
336 337 339 339 340 340 340 340 340 339 339 340 340 340 339 338 337 337 336 334 332 331 331 332 334 336 338 341 342 343 344 343 342 342 341 340 339 337 336 335 335 333 333 332 332 332 331 331 331 330 330 329 329 328 329 329 329 328 328 329 329 328 326
336 337 338 338 339 340 339 339 338 338 338 339 339 338 338 337 335 332 331 330 328 328 331 334 334 332 334 339 342 343 343 342 341 341 340 339 338 337 336 335 333 332 332 332 331 330 330 329 329 328 327 326 325 326 326 326 326 326 326 326 326 324 322
337 337 338 338 339 339 337 337 337 337 337 337 337 337 336 334 330 327 326 326 326 327 330 330 330 330 333 339 343 343 342 342 341 340 339 337 336 336 334 332 330 328 328 328 328 327 326 326 325 324 324 323 323 323 323 322 323 323 323 323 322 321 319
Wind_Speed
14 14 14 13 13 13 13 16 20 23 25 27 30 32 33 33 34 34 34 35 36 35 35 35 35 34 33 32 30 29 29 27 25 24 23 21 20 19 19 19 19 18 17 15 13 13 12 11 9 8 8 7 6 5 5 6 6 5 5 5 5 5 4
13 13 14 13 13 14 15 17 21 23 25 28 30 31 32 33 35 36 35 36 37 37 37 36 36 36 34 33 32 30 29 27 26 24 22 21 21 20 20 20 19 18 17 14 13 12 12 11 10 8 7 7 6 6 5 5 6 6 6 7 7 7 6
13 13 14 14 15 15 15 16 21 24 26 28 29 30 33 36 38 39 38 37 38 36 37 37 38 37 35 34 33 31 30 28 26 24 23 23 22 21 20 20 19 18 17 15 13 13 12 13 12 10 8 8 8 7 7 7 7 7 7 9 10 10 10
14 15 15 16 15 14 13 15 20 25 27 30 33 34 37 39 40 40 39 39 39 38 39 40 39 38 37 36 34 32 31 29 27 25 24 24 22 20 20 20 20 19 18 16 15 14 13 13 13 11 10 9 9 9 9 9 8 9 9 10 10 11 11
15 14 13 13 13 12 12 14 20 25 28 31 34 35 37 38 37 37 38 39 40 41 41 41 39 38 37 36 35 34 32 30 27 26 25 24 22 20 21 21 21 20 19 17 16 15 15 14 14 13 11 11 10 10 10 10 10 10 11 11 11 11 11
13 13 12 12 12 13 13 15 21 28 30 32 35 36 35 35 35 36 37 37 38 38 37 38 39 39 38 37 36 35 33 30 28 27 26 24 22 21 22 22 21 21 20 17 16 17 17 16 15 13 12 12 12 12 11 11 10 10 11 12 12 12 12
13 12 13 13 13 13 13 15 21 28 31 32 32 32 31 32 33 35 35 35 36 36 35 37 38 38 38 38 37 36 34 31 29 29 28 25 23 22 22 22 21 21 19 17 17 18 17 16 15 14 13 13 13 13 13 13 12 11 11 12 12 12 13
14 13 14 14 13 13 13 13 19 25 27 27 26 27 29 31 32 32 33 35 35 35 36 38 38 38 37 37 36 35 34 32 31 30 29 26 24 23 22 22 21 20 19 18 18 19 18 17 16 15 15 15 15 15 16 16 15 15 13 12 12 12 13
14 14 15 15 13 13 11 12 18 23 25 26 27 29 31 31 32 33 34 35 34 35 37 39 37 36 33 33 35 35 34 33 32 32 30 27 26 25 23 21 20 20 20 19 19 20 19 18 17 16 16 16 17 18 19 19 18 18 17 15 13 13 13
13 14 15 13 12 10 9 11 15 17 19 23 26 28 29 30 32 33 33 33 34 36 38 36 33 32 32 33 35 34 33 33 33 33 31 29 27 26 23 21 20 19 19 20 20 20 19 18 17 17 17 18 20 21 21 21 21 21 21 19 16 14 14
13 14 13 10 9 9 9 10 11 13 17 22 25 27 29 31 32 32 33 34 36 36 35 33 33 34 35 35 34 33 34 34 33 34 33 30 28 27 24 21 18 18 19 21 21 20 18 17 17 17 18 20 21 20 19 19 19 20 21 20 18 16 15
13 12 11 11 10 10 10 11 12 13 18 23 26 28 30 31 32 33 34 35 36 35 33 32 34 35 34 33 34 35 35 34 34 35 34 32 29 27 25 21 17 17 20 23 21 18 17 17 17 17 18 19 18 17 16 15 15 16 16 18 18 18 17
10 10 10 11 11 11 11 12 13 15 18 23 27 29 30 32 33 34 34 34 35 34 33 33 34 35 35 36 36 36 36 36 36 36 35 33 30 28 25 22 18 20 24 24 21 18 17 17 17 17 17 17 17 16 15 13 12 13 14 15 17 18 18
9 9 10 10 10 11 12 13 14 14 16 21 25 27 29 30 31 33 34 35 35 33 33 34 35 36 39 40 38 36 37 38 37 36 35 32 30 27 25 22 20 23 26 25 22 20 18 18 18 18 17 17 17 16 15 13 13 13 13 14 15 16 16
10 11 11 10 10 11 12 13 13 13 14 19 22 24 25 26 28 30 31 31 32 33 34 35 36 38 40 40 39 38 39 38 36 35 34 31 29 27 24 21 22 26 27 25 23 21 20 19 19 18 18 18 18 16 15 14 13 13 13 13 14 15 15
13 12 11 11 10 11 12 13 13 13 14 16 20 23 24 25 27 29 30 31 32 34 35 36 38 39 39 41 41 39 38 37 35 33 32 30 29 26 22 22 27 30 28 26 24 23 21 21 20 19 19 18 17 17 16 15 14 14 14 14 14 15 15
12 11 10 10 11 11 11 11 12 12 12 15 21 24 25 26 28 29 30 30 32 34 36 38 39 39 40 42 39 36 35 34 33 31 30 29 27 24 23 27 31 31 29 27 26 25 23 23 22 20 18 18 17 17 17 17 16 16 15 14 14 16 17
10 10 10 10 11 10 10 11 11 11 12 16 21 24 25 26 26 26 27 29 32 35 36 37 38 39 41 40 35 33 35 34 30 29 29 27 25 26 29 32 33 32 31 30 28 27 26 25 24 21 18 17 17 18 19 19 18 18 17 16 16 16 17
10 10 10 10 10 10 11 11 11 12 15 18 22 26 28 28 27 28 31 33 34 34 34 37 39 37 35 32 27 31 34 32 29 30 30 27 26 29 32 33 34 34 33 32 30 28 27 27 24 21 18 18 18 19 20 19 19 19 19 19 18 17 17
9 9 9 8 9 9 10 9 8 10 14 17 22 25 26 27 28 30 31 31 31 33 35 36 30 23 18 14 16 24 30 30 29 29 28 28 31 33 32 32 34 35 35 33 30 28 27 26 23 21 19 19 19 20 20 20 20 20 20 20 19 18 18
7 7 7 7 8 8 7 6 6 9 14 18 21 21 21 24 26 26 27 29 30 32 33 28 24 24 23 20 21 28 33 33 32 30 28 30 33 33 31 32 34 35 34 31 28 27 27 26 23 21 20 20 20 20 21 21 20 20 21 21 20 19 19
8 8 7 8 8 8 8 9 11 14 17 19 19 20 22 25 27 26 26 28 31 31 29 26 27 28 28 27 29 33 35 37 36 32 30 30 31 30 30 32 35 35 33 30 28 27 26 25 23 22 21 21 21 22 22 22 20 20 21 22 21 21 20
9 8 8 8 8 9 12 14 16 17 17 17 18 21 24 24 25 24 24 25 27 26 22 21 24 25 24 26 29 32 35 39 38 32 28 29 29 29 31 34 35 35 32 29 27 27 26 25 23 22 22 23 24 25 25 24 23 22 22 23 23 23 22
4 5 6 7 8 10 13 14 14 13 11 11 12 15 18 19 20 20 19 18 16 13 11 14 20 26 30 33 34 34 36 39 38 32 29 29 30 31 33 35 35 34 31 28 27 26 25 24 24 23 24 25 27 27 27 26 26 24 23 24 24 23 24
3 5 7 9 10 10 11 10 9 6 6 9 11 14 17 20 22 22 21 20 19 20 21 23 28 32 32 31 32 36 39 40 38 34 31 30 31 32 34 35 34 31 28 26 25 25 24 23 23 24 26 27 27 27 27 28 28 26 26 26 25 23 24
4 4 6 8 7 6 6 7 7 9 11 14 16 19 21 24 26 26 26 26 27 27 29 32 34 35 31 26 24 29 35 38 37 34 31 29 30 31 31 32 31 27 24 23 23 23 24 24 23 25 26 27 26 26 27 27 28 28 27 28 26 23 23
3 4 3 4 4 4 6 7 10 12 13 15 18 21 23 26 27 25 25 24 24 25 28 32 34 34 32 29 24 24 28 34 33 30 28 27 26 27 27 28 26 24 23 22 22 22 23 24 25 25 26 26 26 26 26 26 27 27 27 27 27 23 23
6 7 7 7 7 9 12 12 11 12 13 16 20 22 24 26 24 21 21 22 23 26 29 32 34 32 31 29 24 20 21 25 27 26 24 23 22 23 23 23 22 21 21 21 21 21 23 24 24 25 26 26 26 26 26 26 25 24 23 23 24 23 22
6 6 7 8 8 10 14 14 12 13 14 17 20 22 24 25 22 20 21 22 23 26 27 28 29 29 26 26 25 22 20 22 24 24 22 21 20 20 20 20 20 20 20 20 20 21 23 25 24 23 24 25 26 26 25 23 21 20 19 19 20 20 20
5 5 6 8 9 11 14 15 13 13 15 18 21 23 25 26 23 21 20 20 20 22 23 23 24 24 23 23 24 24 24 26 25 22 20 19 18 18 19 20 20 21 20 19 20 21 24 26 24 22 22 24 26 25 23 20 19 18 18 19 20 20 20
6 7 7 8 9 10 13 14 15 15 15 16 20 22 24 26 25 22 18 18 20 22 22 22 21 18 16 16 17 20 24 26 23 20 18 18 18 19 21 21 21 21 20 20 21 22 24 25 22 20 21 22 23 23 21 19 19 18 18 20 22 23 23
6 7 7 7 5 6 10 14 14 14 14 14 17 20 22 22 23 21 18 17 19 20 20 20 17 15 14 15 17 21 25 25 23 19 18 18 18 19 21 21 21 21 20 21 22 22 23 22 20 18 19 20 21 21 20 19 19 18 19 20 22 24 23
4 5 6 6 4 5 10 12 12 12 13 13 16 18 19 18 18 19 18 17 17 18 18 18 18 18 19 21 22 23 23 23 21 19 17 16 17 18 20 20 20 20 20 21 21 22 22 20 18 18 18 19 20 20 19 19 19 19 20 21 21 23 20
3 4 5 5 4 6 10 11 11 12 13 13 16 18 18 17 17 17 17 17 18 19 20 20 21 19 19 21 22 20 19 19 18 16 16 16 17 18 19 19 19 19 20 21 21 21 20 19 19 18 18 18 18 17 17 18 19 18 18 18 20 20 17
1 3 5 5 6 7 10 10 12 13 13 14 17 18 18 18 18 16 16 18 20 20 19 18 16 13 11 14 14 14 16 18 18 16 16 17 18 18 18 18 18 18 19 19 19 18 18 18 17 16 15 15 15 15 15 17 18 16 16 16 17 18 17
5 5 6 7 8 8 9 10 12 13 14 15 17 19 19 19 18 16 17 18 18 16 13 12 11 8 6 8 10 13 16 18 18 17 17 18 19 18 17 17 18 19 19 18 17 16 15 15 14 13 12 12 12 13 14 16 17 16 14 14 15 16 15
6 6 7 8 9 9 10 11 13 14 15 16 18 19 19 18 17 16 16 15 13 12 12 11 10 8 7 11 14 17 18 19 19 19 19 19 18 18 17 17 17 17 17 16 15 13 12 12 11 9 9 9 10 10 12 14 15 14 11 10 12 13 12
4 5 7 8 9 11 12 12 13 15 17 18 19 19 19 18 17 16 16 16 15 13 13 11 8 7 11 16 19 21 21 21 21 19 18 18 17 17 17 17 15 14 13 12 11 10 9 7 6 5 6 6 7 7 9 10 10 9 7 8 10 11 9
Wind_Direction
188 190 192 195 197 195 194 193 192 191 190 191 192 192 192 193 194 195 197 200 201 203 205 205 205 205 205 206 206 206 205 205 204 204 206 210 214 215 214 213 214 215 217 223 225 223 222 222 223 236 247 244 244 251 249 245 246 244 249 259 258 261 269
189 193 194 193 196 198 197 194 191 192 193 194 195 193 193 194 194 196 198 200 201 203 204 204 203 204 205 205 204 204 205 205 204 206 209 212 213 215 214 214 215 216 219 222 217 214 215 214 216 225 229 229 235 239 240 243 241 241 247 252 254 256 260
190 195 194 194 198 197 194 191 190 193 194 195 195 195 195 196 197 198 198 199 200 202 202 202 202 203 204 203 203 203 203 203 204 206 209 211 212 214 215 216 218 218 219 214 206 206 210 212 216 222 224 228 232 233 237 240 240 245 251 255 257 256 255
192 197 195 197 199 196 192 189 191 193 195 196 197 197 198 199 198 199 199 199 199 199 201 202 201 202 202 202 202 202 202 203 204 206 209 212 214 214 214 215 215 215 214 209 203 206 212 215 218 221 224 230 235 235 236 237 236 240 245 250 253 253 255
194 196 196 198 196 194 193 190 192 194 196 199 199 200 201 200 199 199 200 201 200 201 202 201 199 200 201 202 202 202 203 203 203 205 210 214 215 214 213 213 213 212 210 209 208 209 213 216 218 221 225 233 239 239 239 241 241 241 243 247 252 254 258
194 193 195 198 195 196 194 191 194 195 196 199 200 201 202 200 199 200 200 201 201 202 201 200 199 199 199 200 201 202 203 203 203 206 211 213 214 214 213 213 212 211 210 211 211 209 213 218 221 225 230 236 242 240 240 245 246 246 248 250 256 260 262
193 194 196 199 197 196 193 192 195 197 199 200 200 201 200 199 200 200 200 200 200 200 200 199 199 199 199 199 199 200 201 201 202 206 210 212 213 213 213 213 213 213 214 216 214 211 215 220 224 230 236 239 244 245 245 248 250 251 251 252 257 261 264
191 193 198 200 200 197 192 191 194 196 199 198 197 198 199 199 200 200 200 201 200 200 199 200 200 199 198 197 197 200 201 201 204 207 209 211 212 213 213 214 215 215 218 221 219 215 217 223 228 234 239 242 247 250 252 254 253 253 253 252 257 261 264
192 196 201 201 199 195 191 190 191 193 194 193 195 197 197 198 198 199 201 200 199 200 201 202 200 197 196 196 198 201 202 204 206 208 209 211 212 214 214 216 217 218 223 226 221 218 221 226 231 235 241 247 252 255 258 259 258 257 253 251 255 258 260
193 200 204 202 197 194 188 184 187 188 191 194 196 197 197 197 198 199 200 199 199 202 203 200 195 193 194 198 201 202 203 207 208 208 210 212 213 214 216 218 220 224 228 227 221 220 224 229 234 240 246 252 256 259 261 261 261 260 256 250 251 254 257
195 199 201 196 189 187 180 178 183 187 192 195 195 196 197 197 198 198 198 199 201 202 201 196 192 192 196 198 199 201 204 207 208 209 211 213 213 214 216 219 222 228 230 226 222 222 229 236 243 248 250 252 254 256 258 258 260 261 257 250 247 252 256
195 195 193 188 183 182 180 183 188 191 194 196 196 196 197 197 197 198 199 200 201 201 198 193 191 192 193 196 199 202 205 205 207 210 212 213 213 214 216 217 219 221 223 226 226 226 236 245 247 248 249 248 248 249 251 252 254 255 252 246 245 250 256
190 188 188 186 183 184 185 189 194 195 196 198 198 198 197 197 197 197 198 200 200 199 196 192 190 188 191 198 203 203 204 204 208 211 212 213 213 214 215 215 214 214 217 223 227 231 240 243 241 244 245 243 243 245 246 248 250 253 249 243 244 251 256
180 188 192 189 186 188 189 193 198 198 198 200 200 200 200 199 198 197 198 199 197 196 194 191 189 187 191 199 203 202 202 204 209 212 212 213 214 215 216 216 219 221 221 223 228 235 240 238 236 239 239 239 242 242 242 245 251 257 254 247 249 255 258
184 194 194 191 190 192 193 197 200 198 199 201 200 200 201 200 200 199 199 198 196 194 193 191 190 190 192 197 201 200 200 203 208 210 211 212 213 215 216 220 229 231 228 227 233 239 239 234 233 234 236 238 238 235 237 245 254 260 261 258 258 259 260
190 194 192 191 193 197 200 202 201 199 199 199 199 200 200 200 200 199 198 197 195 194 194 192 191 192 193 197 200 197 194 200 205 208 209 210 212 214 215 221 230 234 233 233 237 239 235 231 229 232 237 236 232 232 238 247 256 262 263 263 261 259 259
191 189 188 194 198 202 205 205 204 203 199 199 201 200 199 200 200 199 199 197 195 195 195 193 193 194 195 199 198 189 188 198 203 205 208 211 212 213 215 223 230 235 236 236 237 236 231 228 229 233 238 237 235 240 247 252 257 259 259 259 258 258 260
186 184 187 197 204 205 208 209 207 203 202 203 202 201 201 201 199 198 199 198 198 198 196 195 195 196 197 199 192 179 185 198 201 201 206 210 213 215 217 226 233 236 236 236 236 234 228 227 231 237 243 244 243 249 253 256 257 258 259 260 258 259 263
180 186 191 197 204 206 209 212 210 206 206 204 201 202 203 200 197 199 201 201 200 199 197 197 199 199 198 196 182 172 184 197 198 199 204 207 215 222 223 229 235 235 235 235 235 234 230 229 233 241 248 250 251 256 260 260 260 260 261 261 260 262 265
185 190 194 197 204 211 215 216 217 216 214 211 208 207 205 201 200 203 203 202 200 199 199 200 196 188 187 183 161 169 190 199 195 198 208 213 219 226 228 232 235 235 235 236 235 234 231 230 236 245 251 252 254 260 265 265 264 267 268 265 262 263 266
195 192 198 206 211 218 216 207 209 215 216 217 214 208 203 201 202 203 202 202 201 201 202 196 179 171 179 182 175 182 195 198 193 198 213 220 222 227 231 235 237 236 235 234 234 234 233 235 241 248 252 253 255 261 266 267 267 272 274 270 264 264 267
193 189 199 211 212 213 207 201 208 215 216 216 209 202 201 201 200 199 199 200 201 201 199 189 175 174 183 187 185 188 195 196 197 202 213 220 225 229 234 238 238 236 234 233 234 235 236 239 245 250 252 253 254 257 260 263 264 267 271 271 269 268 266
176 183 201 209 210 219 221 218 221 225 222 214 206 202 202 199 194 193 193 196 200 199 193 177 164 167 184 193 191 191 196 198 200 204 210 220 230 234 237 238 238 236 234 233 233 235 238 242 247 251 253 252 252 252 254 257 260 260 263 269 274 274 265
161 177 200 199 201 223 230 227 229 232 221 204 198 200 197 187 181 180 180 183 182 167 150 146 154 172 194 202 197 195 200 200 199 202 210 221 230 235 236 236 236 235 235 235 236 238 242 246 250 253 253 252 251 251 254 259 262 262 261 265 274 276 264
200 194 207 205 201 216 227 222 218 211 181 172 178 186 186 179 174 170 168 171 168 161 162 169 177 188 201 206 200 198 200 200 200 204 213 223 230 232 233 233 234 235 237 238 240 243 247 252 255 256 255 253 252 252 253 258 263 264 262 261 268 272 261
205 200 213 215 210 221 226 204 178 161 165 174 177 179 180 177 173 172 175 178 178 176 177 178 183 190 198 204 207 203 199 197 200 206 215 224 230 231 232 233 234 236 239 243 245 246 248 252 255 257 255 252 251 252 253 257 262 263 263 263 266 266 254
92 93 116 151 166 175 164 154 156 159 168 175 174 175 179 176 173 175 179 179 178 179 179 180 185 192 194 197 207 215 207 200 201 210 221 229 232 231 232 235 237 239 244 248 247 245 246 250 253 253 253 252 253 254 256 260 263 265 267 269 268 262 248
74 72 80 98 116 129 125 121 130 142 154 167 172 176 179 176 173 174 175 177 181 184 184 184 188 193 191 189 199 220 224 213 212 221 231 233 232 232 233 236 240 245 249 250 248 247 249 252 253 252 253 256 257 259 263 266 267 269 272 271 267 259 244
69 69 74 82 97 118 120 114 119 132 145 162 171 176 179 176 172 173 176 181 185 184 183 185 188 188 186 188 196 211 228 235 233 232 235 235 233 233 235 239 243 246 248 247 247 248 251 256 258 257 259 262 263 265 268 268 267 267 266 262 260 254 243
53 61 69 79 97 120 124 121 126 137 150 165 174 177 180 179 174 173 179 183 180 176 177 180 183 183 187 196 201 207 227 243 241 234 236 237 235 235 238 241 243 242 242 242 243 244 251 259 263 263 263 265 266 267 266 264 262 261 258 255 257 255 250
43 42 49 74 104 129 138 139 143 146 151 166 176 178 181 182 176 171 176 180 176 173 174 176 179 189 206 217 220 225 236 242 238 236 240 238 235 238 239 238 236 235 235 237 239 243 250 257 261 260 259 261 264 265 265 264 261 260 260 260 261 262 261
42 47 52 63 89 131 144 143 145 146 147 160 174 178 180 182 177 171 171 174 175 174 174 177 187 205 221 226 227 231 235 235 234 234 235 233 235 239 239 236 235 235 235 236 239 245 251 255 258 258 256 258 262 266 269 268 265 264 267 267 266 268 265
31 52 65 68 84 141 150 146 144 146 147 156 171 177 176 177 176 170 164 164 170 173 174 179 189 198 206 211 214 219 225 227 226 224 222 225 230 232 234 236 237 237 237 239 242 245 249 251 252 252 253 257 262 267 271 273 273 273 273 271 269 270 262
8 52 78 95 128 159 161 154 149 151 150 155 168 175 176 175 173 168 162 161 167 171 172 176 180 187 203 212 212 213 219 220 217 214 216 219 221 222 226 230 232 236 240 243 246 247 248 248 248 249 252 257 263 268 272 275 279 281 280 277 273 266 250
195 128 126 137 154 168 170 162 154 151 150 155 165 171 174 175 175 175 173 170 169 168 166 164 163 172 201 213 207 206 210 208 205 206 210 212 213 214 218 223 227 234 240 245 247 248 249 250 253 256 260 264 268 271 272 276 283 288 289 284 272 257 241
174 163 158 155 157 167 172 166 156 150 149 155 164 168 170 174 175 176 174 169 164 159 149 135 131 142 188 217 212 205 203 201 199 200 205 210 210 210 216 224 230 233 236 240 243 245 247 252 257 263 268 270 272 271 271 275 281 287 290 280 258 242 232
187 180 174 163 158 161 166 165 160 152 149 154 159 159 160 161 158 157 158 153 140 133 130 124 125 145 195 224 218 206 202 204 205 204 205 208 210 211 217 224 228 230 233 237 240 244 248 253 258 261 262 263 265 265 267 271 275 278 278 261 238 229 229
231 200 186 179 171 169 171 171 165 155 150 153 154 150 147 146 141 138 134 124 113 112 115 115 127 178 215 226 218 205 202 206 207 204 203 203 205 210 215 217 218 221 226 232 238 242 245 250 256 255 247 247 251 254 262 272 275 270 257 235 227 230 236